M I D A S
Marine Information and Data Acquisition System
Tripno 273 of the Zeeleeuw from 2002-05-03 06:46:01 to 2002-05-03 16:02:10
Back to CruiseResearch ActivitiesStationsMapUnderway DataData graphs

EquipmentUnitsComments
TimeDGPSUTC
LatitudeDGPSDM.mWGS84
LongitudeDGPSDM.mWGS84
SpeedMeteo Stationm/sRelative wind speed
DirectionMeteo StationdegRelative wind direction
TemperatureMeteo Stationdeg CelciusAir temperature
PressureMeteo StationPaAtmospheric pressure
HumidityMeteo Station%Relative humidity
Missing or incorrect values are displayed as -999
Metereological data collected by the RV Zeeleeuw from 2002-05-03 06:46:01 to 2002-05-03 16:02:10
                                                                                    Next 1000 lines
Time Latitude Longitude Speed Direction Temperature Pressure Humidity
2002-05-03 06:46:11 51°13.691 2°55.869 2.4 23 10.3 101480 83
2002-05-03 06:46:17 51°13.692 2°55.862 3.3 19 10.3 101480 83
2002-05-03 06:46:21 51°13.692 2°55.857 2.6 8 10.3 101470 83
2002-05-03 06:46:26 51°13.693 2°55.85 3.2 16 10.3 101470 83
2002-05-03 06:46:31 51°13.694 2°55.844 3.1 4 10.3 101470 83
2002-05-03 06:46:36 51°13.694 2°55.836 3.4 30 10.3 101470 83
2002-05-03 06:46:41 51°13.695 2°55.829 4.2 8 10.3 101480 83
2002-05-03 06:46:46 51°13.695 2°55.821 4.2 10 10.3 101480 83
2002-05-03 06:46:51 51°13.696 2°55.813 4.7 353 10.3 101470 83
2002-05-03 06:46:56 51°13.696 2°55.806 4.3 16 10.3 101470 83
2002-05-03 06:47:02 51°13.697 2°55.797 4.3 18 10.3 101480 83
2002-05-03 06:47:06 51°13.698 2°55.791 4.3 10 10.3 101480 83
2002-05-03 06:47:10 51°13.698 2°55.786 4.8 359 10.3 101480 83
2002-05-03 06:47:16 51°13.699 2°55.777 4.6 7 10.3 101480 83
2002-05-03 06:47:21 51°13.699 2°55.77 4.3 12 10.3 101480 83
2002-05-03 06:47:26 51°13.7 2°55.764 4.3 11 10.3 101480 83
2002-05-03 06:47:30 51°13.701 2°55.76 4.2 12 10.3 101480 83
2002-05-03 06:47:36 51°13.701 2°55.756 2.2 337 10.3 101480 83
2002-05-03 06:47:40 51°13.702 2°55.756 1 323 10.3 101480 83
2002-05-03 06:47:45 51°13.703 2°55.756 2.2 341 10.3 101480 83
2002-05-03 06:47:50 51°13.703 2°55.758 1.4 324 10.3 101480 83
2002-05-03 06:47:56 51°13.704 2°55.759 1.4 321 10.3 101480 83
2002-05-03 06:48:00 51°13.704 2°55.76 1.9 307 10.3 101480 83
2002-05-03 06:48:05 51°13.705 2°55.76 1.6 343 10.3 101480 83
2002-05-03 06:48:10 51°13.705 2°55.76 2.2 302 10.3 101480 83
2002-05-03 06:48:15 51°13.705 2°55.759 2.7 311 10.3 101480 83
2002-05-03 06:48:20 51°13.705 2°55.756 2.2 324 10.3 101480 83
2002-05-03 06:48:26 51°13.704 2°55.752 1.1 337 10.3 101480 83
2002-05-03 06:48:30 51°13.703 2°55.749 0.6 327 10.3 101480 83
2002-05-03 06:48:36 51°13.701 2°55.744 0.7 311 10.3 101480 83
2002-05-03 06:48:41 51°13.7 2°55.741 1.3 334 10.3 101480 83
2002-05-03 06:48:46 51°13.699 2°55.737 1.5 315 10.3 101480 83
2002-05-03 06:48:51 51°13.699 2°55.735 4 298 10.3 101480 83
2002-05-03 06:48:56 51°13.7 2°55.736 4.5 287 10.3 101480 83
2002-05-03 06:49:01 51°13.701 2°55.737 4 281 10.3 101480 83
2002-05-03 06:49:06 51°13.702 2°55.739 4.1 288 10.3 101480 83
2002-05-03 06:49:11 51°13.704 2°55.74 4.5 286 10.3 101480 83
2002-05-03 06:49:16 51°13.705 2°55.74 4.4 270 10.3 101480 83
2002-05-03 06:49:21 51°13.706 2°55.74 3.8 279 10.3 101480 83
2002-05-03 06:49:26 51°13.706 2°55.74 3.8 274 10.3 101480 83
2002-05-03 06:49:31 51°13.705 2°55.739 3.9 272 10.3 101470 83
2002-05-03 06:49:36 51°13.704 2°55.738 3.8 279 10.3 101470 83
2002-05-03 06:49:40 51°13.703 2°55.737 3.4 278 10.3 101470 83
2002-05-03 06:49:46 51°13.7 2°55.736 3.5 273 10.3 101470 83
2002-05-03 06:49:51 51°13.698 2°55.734 3 284 10.3 101480 83
2002-05-03 06:49:56 51°13.696 2°55.733 4 281 10.3 101480 83
2002-05-03 06:50:01 51°13.695 2°55.731 3.7 287 10.3 101470 83
2002-05-03 06:50:06 51°13.692 2°55.73 3 267 10.3 101470 83
2002-05-03 06:50:11 51°13.69 2°55.729 3.1 275 10.4 101480 83
2002-05-03 06:50:16 51°13.688 2°55.727 3.4 273 10.4 101480 83
2002-05-03 06:50:21 51°13.686 2°55.726 3.7 266 10.4 101470 83
2002-05-03 06:50:26 51°13.685 2°55.725 2.9 256 10.4 101470 83
2002-05-03 06:50:30 51°13.683 2°55.724 3.5 259 10.4 101470 83
2002-05-03 06:50:36 51°13.683 2°55.723 3.5 239 10.4 101470 83
2002-05-03 06:50:41 51°13.684 2°55.723 4 247 10.4 101470 83
2002-05-03 06:50:45 51°13.685 2°55.723 4.1 239 10.4 101470 83
2002-05-03 06:50:50 51°13.688 2°55.722 5.1 237 10.4 101480 82
2002-05-03 06:50:55 51°13.691 2°55.722 5.7 242 10.4 101480 82
2002-05-03 06:51:01 51°13.696 2°55.721 6.1 243 10.4 101470 82
2002-05-03 06:51:05 51°13.7 2°55.72 5.8 228 10.4 101470 82
2002-05-03 06:51:10 51°13.705 2°55.719 6.4 230 10.4 101470 82
2002-05-03 06:51:16 51°13.712 2°55.717 6.1 317 10.4 101470 82
2002-05-03 06:51:20 51°13.717 2°55.714 6.6 228 10.4 101470 82
2002-05-03 06:51:25 51°13.724 2°55.711 5.9 231 10.4 101470 82
2002-05-03 06:51:30 51°13.731 2°55.707 7 233 10.4 101470 82
2002-05-03 06:51:35 51°13.738 2°55.703 6.4 316 10.4 101470 82
2002-05-03 06:51:40 51°13.746 2°55.698 7.3 227 10.4 101470 82
2002-05-03 06:51:45 51°13.754 2°55.694 6.8 228 10.4 101470 82
2002-05-03 06:51:51 51°13.763 2°55.689 5.4 234 10.4 101470 82
2002-05-03 06:51:56 51°13.771 2°55.684 6.5 230 10.4 101470 82
2002-05-03 06:52:01 51°13.778 2°55.679 6.9 229 10.4 101470 82
2002-05-03 06:52:06 51°13.786 2°55.673 7 230 10.4 101470 82
2002-05-03 06:52:11 51°13.794 2°55.667 7.4 227 10.4 101470 82
2002-05-03 06:52:15 51°13.8 2°55.662 7.8 232 10.4 101470 82
2002-05-03 06:52:20 51°13.808 2°55.657 7.8 228 10.4 101470 82
2002-05-03 06:52:25 51°13.817 2°55.65 7.7 223 10.4 101470 82
2002-05-03 06:52:31 51°13.827 2°55.642 8 227 10.4 101460 82
2002-05-03 06:52:36 51°13.836 2°55.635 7.6 229 10.4 101460 82
2002-05-03 06:52:40 51°13.843 2°55.629 7.6 228 10.4 101470 82
2002-05-03 06:52:46 51°13.854 2°55.621 8 227 10.4 101470 82
2002-05-03 06:52:51 51°13.863 2°55.613 7.7 229 10.4 101460 82
2002-05-03 06:52:56 51°13.872 2°55.606 7.6 221 10.4 101460 82
2002-05-03 06:53:00 51°13.879 2°55.6 7.5 226 10.4 101460 82
2002-05-03 06:53:05 51°13.889 2°55.593 7.2 229 10.4 101460 82
2002-05-03 06:53:10 51°13.898 2°55.586 7.5 227 10.4 101460 82
2002-05-03 06:53:16 51°13.909 2°55.577 7.4 227 10.4 101460 82
2002-05-03 06:53:20 51°13.916 2°55.571 8 228 10.4 101470 82
2002-05-03 06:53:26 51°13.928 2°55.563 7.7 229 10.4 101470 82
2002-05-03 06:53:30 51°13.935 2°55.557 8.7 233 10.4 101460 82
2002-05-03 06:53:35 51°13.945 2°55.551 7.7 230 10.4 101460 82
2002-05-03 06:53:40 51°13.954 2°55.544 7.6 230 10.4 101470 82
2002-05-03 06:53:46 51°13.965 2°55.536 7.9 228 10.4 101470 82
2002-05-03 06:53:50 51°13.973 2°55.53 8.4 231 10.4 101470 82
2002-05-03 06:53:56 51°13.985 2°55.522 8.5 230 10.4 101470 82
2002-05-03 06:54:01 51°13.995 2°55.515 8.2 232 10.4 101460 82
2002-05-03 06:54:06 51°14.004 2°55.508 8.5 228 10.4 101460 82
2002-05-03 06:54:11 51°14.014 2°55.501 8.3 231 10.4 101470 82
2002-05-03 06:54:15 51°14.021 2°55.495 7.8 228 10.4 101470 82
2002-05-03 06:54:20 51°14.031 2°55.488 7.3 225 10.3 101460 82
2002-05-03 06:54:26 51°14.043 2°55.48 7.7 317 10.3 101460 82
2002-05-03 06:54:31 51°14.052 2°55.474 7.2 226 10.3 101460 82
2002-05-03 06:54:35 51°14.06 2°55.469 7.7 229 10.3 101460 82
2002-05-03 06:54:41 51°14.071 2°55.461 6.7 227 10.3 101460 82
2002-05-03 06:54:46 51°14.081 2°55.453 7.1 228 10.3 101460 82
2002-05-03 06:54:50 51°14.088 2°55.448 7.3 225 10.4 101470 83
2002-05-03 06:54:56 51°14.1 2°55.439 7.5 225 10.4 101470 83
2002-05-03 06:55:00 51°14.107 2°55.433 8.1 225 10.3 101470 83
2002-05-03 06:55:06 51°14.118 2°55.423 8.1 225 10.3 101470 83
2002-05-03 06:55:11 51°14.128 2°55.415 8.1 224 10.4 101470 83
2002-05-03 06:55:15 51°14.136 2°55.409 7.6 228 10.4 101470 83
2002-05-03 06:55:20 51°14.145 2°55.401 7.4 225 10.3 101470 83
2002-05-03 06:55:25 51°14.154 2°55.392 7.8 228 10.3 101470 83
2002-05-03 06:55:30 51°14.163 2°55.383 8 227 10.3 101470 83
2002-05-03 06:55:36 51°14.174 2°55.373 7.9 225 10.3 101470 83
2002-05-03 06:55:41 51°14.183 2°55.364 8 218 10.3 101470 83
2002-05-03 06:55:46 51°14.192 2°55.355 6.9 220 10.3 101470 83
2002-05-03 06:55:50 51°14.199 2°55.347 7.4 224 10.3 101460 83
2002-05-03 06:55:55 51°14.208 2°55.337 8.1 223 10.3 101460 83
2002-05-03 06:56:00 51°14.217 2°55.327 7.7 316 10.3 101470 83
2002-05-03 06:56:05 51°14.225 2°55.316 7.9 224 10.3 101470 83
2002-05-03 06:56:10 51°14.234 2°55.306 7.8 228 10.3 101470 83
2002-05-03 06:56:16 51°14.244 2°55.293 8.2 219 10.3 101470 83
2002-05-03 06:56:20 51°14.25 2°55.285 7.8 225 10.3 101470 83
2002-05-03 06:56:25 51°14.258 2°55.274 7.7 217 10.3 101470 83
2002-05-03 06:56:30 51°14.267 2°55.262 7.5 217 10.3 101470 83
2002-05-03 06:56:36 51°14.276 2°55.248 7.9 217 10.3 101470 83
2002-05-03 06:56:40 51°14.282 2°55.238 7.6 220 10.3 101470 83
2002-05-03 06:56:46 51°14.29 2°55.222 8.9 226 10.3 101470 83
2002-05-03 06:56:50 51°14.296 2°55.212 7.1 211 10.3 101470 83
2002-05-03 06:56:55 51°14.303 2°55.198 6.4 315 10.3 101470 83
2002-05-03 06:57:00 51°14.309 2°55.185 6.8 212 10.3 101470 83
2002-05-03 06:57:06 51°14.317 2°55.169 7.4 219 10.3 101470 83
2002-05-03 06:57:10 51°14.323 2°55.158 7.4 214 10.3 101470 83
2002-05-03 06:57:15 51°14.33 2°55.144 8.3 213 10.3 101470 83
2002-05-03 06:57:20 51°14.336 2°55.13 8.1 214 10.2 101470 83
2002-05-03 06:57:26 51°14.344 2°55.114 8.7 216 10.2 101470 83
2002-05-03 06:57:31 51°14.351 2°55.1 7.9 214 10.2 101470 83
2002-05-03 06:57:35 51°14.357 2°55.089 8.4 220 10.2 101470 83
2002-05-03 06:57:40 51°14.364 2°55.076 8.4 220 10.2 101470 83
2002-05-03 06:57:45 51°14.371 2°55.062 8.8 219 10.2 101470 83
2002-05-03 06:57:50 51°14.378 2°55.049 8.9 220 10.2 101460 83
2002-05-03 06:57:55 51°14.385 2°55.036 9.1 221 10.2 101460 83
2002-05-03 06:58:00 51°14.393 2°55.023 8.5 223 10.3 101460 84
2002-05-03 06:58:05 51°14.401 2°55.011 9.3 225 10.3 101460 84
2002-05-03 06:58:10 51°14.41 2°54.997 9.1 225 10.3 101460 84
2002-05-03 06:58:15 51°14.419 2°54.983 10.5 226 10.3 101460 84
2002-05-03 06:58:20 51°14.429 2°54.968 10.4 223 10.3 101460 83
2002-05-03 06:58:26 51°14.443 2°54.951 9.5 224 10.3 101460 83
2002-05-03 06:58:30 51°14.452 2°54.939 11 222 10.3 101460 83
2002-05-03 06:58:35 51°14.464 2°54.924 10.6 225 10.3 101460 83
2002-05-03 06:58:40 51°14.476 2°54.909 10.3 223 10.3 101460 83
2002-05-03 06:58:46 51°14.491 2°54.891 11.2 222 10.3 101460 83
2002-05-03 06:58:50 51°14.501 2°54.878 11.5 224 10.3 101460 83
2002-05-03 06:58:55 51°14.514 2°54.863 11.4 224 10.3 101460 83
2002-05-03 06:59:00 51°14.528 2°54.848 11.4 222 10.3 101460 83
2002-05-03 06:59:06 51°14.545 2°54.831 10.4 225 10.3 101460 83
2002-05-03 06:59:10 51°14.556 2°54.821 10.4 225 10.3 101460 83
2002-05-03 06:59:15 51°14.571 2°54.81 11.1 228 10.3 101460 83
2002-05-03 06:59:20 51°14.586 2°54.8 10.9 228 10.3 101460 83
2002-05-03 06:59:25 51°14.602 2°54.791 10.8 228 10.3 101460 83
2002-05-03 06:59:30 51°14.618 2°54.784 11.6 228 10.2 101460 83
2002-05-03 06:59:35 51°14.633 2°54.776 10.7 228 10.2 101460 83
2002-05-03 06:59:40 51°14.649 2°54.768 12.1 227 10.2 101460 83
2002-05-03 06:59:45 51°14.664 2°54.759 10.9 227 10.2 101460 83
2002-05-03 06:59:51 51°14.682 2°54.747 11.6 231 10.2 101460 83
2002-05-03 06:59:55 51°14.695 2°54.74 11.9 233 10.2 101460 83
2002-05-03 07:00:00 51°14.711 2°54.733 11 230 10.2 101460 83
2002-05-03 07:00:05 51°14.726 2°54.726 11.8 232 10.2 101460 83
2002-05-03 07:00:10 51°14.742 2°54.72 11.5 234 10.2 101460 83
2002-05-03 07:00:15 51°14.759 2°54.716 11 237 10.2 101460 83
2002-05-03 07:00:20 51°14.776 2°54.713 10.9 235 10.3 101460 83
2002-05-03 07:00:26 51°14.795 2°54.71 11 238 10.3 101460 83
2002-05-03 07:00:30 51°14.808 2°54.708 12.3 236 10.2 101460 83
2002-05-03 07:00:35 51°14.825 2°54.708 10.9 238 10.2 101460 83
2002-05-03 07:00:40 51°14.842 2°54.707 11.8 236 10.3 101460 83
2002-05-03 07:00:45 51°14.858 2°54.707 11.6 238 10.3 101460 83
2002-05-03 07:00:50 51°14.875 2°54.707 11.4 238 10.3 101460 84
2002-05-03 07:00:56 51°14.895 2°54.709 11.3 243 10.3 101460 84
2002-05-03 07:01:00 51°14.909 2°54.71 11.3 239 10.2 101460 84
2002-05-03 07:01:06 51°14.929 2°54.714 11.3 241 10.2 101460 84
2002-05-03 07:01:10 51°14.942 2°54.716 11 241 10.3 101460 83
2002-05-03 07:01:15 51°14.959 2°54.721 11.8 244 10.3 101460 83
2002-05-03 07:01:20 51°14.976 2°54.725 11.2 244 10.2 101460 83
2002-05-03 07:01:25 51°14.992 2°54.731 10.1 245 10.2 101460 83
2002-05-03 07:01:30 51°15.008 2°54.738 10.8 242 10.2 101450 83
2002-05-03 07:01:35 51°15.024 2°54.745 11.4 241 10.2 101450 83
2002-05-03 07:01:40 51°15.041 2°54.753 10.3 244 10.2 101460 83
2002-05-03 07:01:45 51°15.057 2°54.761 11 244 10.2 101460 83
2002-05-03 07:01:50 51°15.072 2°54.77 11.4 249 10.2 101460 84
2002-05-03 07:01:55 51°15.088 2°54.779 11.3 245 10.2 101460 84
2002-05-03 07:02:00 51°15.103 2°54.79 12 250 10.3 101460 84
2002-05-03 07:02:06 51°15.122 2°54.801 11.6 247 10.3 101460 84
2002-05-03 07:02:10 51°15.135 2°54.811 11 250 10.3 101460 84
2002-05-03 07:02:15 51°15.15 2°54.82 11.7 247 10.3 101460 84
2002-05-03 07:02:20 51°15.166 2°54.831 12.1 246 10.3 101450 84
2002-05-03 07:02:26 51°15.185 2°54.843 11.3 246 10.3 101450 84
2002-05-03 07:02:30 51°15.197 2°54.852 10.7 247 10.3 101460 84
2002-05-03 07:02:36 51°15.216 2°54.864 11.5 247 10.3 101460 84
2002-05-03 07:02:40 51°15.228 2°54.873 10.9 251 10.3 101450 84
2002-05-03 07:02:45 51°15.243 2°54.884 10.6 247 10.3 101450 84
2002-05-03 07:02:50 51°15.258 2°54.896 10.7 253 10.3 101460 84
2002-05-03 07:02:55 51°15.273 2°54.908 10.4 251 10.3 101460 84
2002-05-03 07:03:00 51°15.288 2°54.921 10.1 253 10.3 101470 83
2002-05-03 07:03:05 51°15.303 2°54.934 11.2 251 10.3 101470 83
2002-05-03 07:03:10 51°15.317 2°54.948 10.6 254 10.3 101470 83
2002-05-03 07:03:16 51°15.334 2°54.963 10.4 252 10.3 101470 83
2002-05-03 07:03:20 51°15.346 2°54.975 10.9 258 10.3 101460 83
2002-05-03 07:03:26 51°15.363 2°54.992 10.3 254 10.3 101460 83
2002-05-03 07:03:30 51°15.374 2°55.005 9.9 254 10.3 101470 83
2002-05-03 07:03:35 51°15.388 2°55.019 10.5 250 10.3 101470 83
2002-05-03 07:03:40 51°15.402 2°55.035 11 256 10.3 101470 83
2002-05-03 07:03:45 51°15.416 2°55.049 10.3 251 10.3 101470 83
2002-05-03 07:03:51 51°15.432 2°55.068 10.8 256 10.3 101460 83
2002-05-03 07:03:55 51°15.443 2°55.081 10.2 252 10.3 101460 83
2002-05-03 07:04:00 51°15.456 2°55.098 10.7 257 10.3 101470 83
2002-05-03 07:04:05 51°15.469 2°55.115 9.7 251 10.3 101470 83
2002-05-03 07:04:10 51°15.481 2°55.134 10.7 254 10.3 101470 83
2002-05-03 07:04:15 51°15.493 2°55.152 10.8 254 10.3 101470 83
2002-05-03 07:04:20 51°15.505 2°55.17 10.7 257 10.3 101470 83
2002-05-03 07:04:26 51°15.52 2°55.193 10.1 255 10.3 101470 83
2002-05-03 07:04:30 51°15.529 2°55.209 10.5 255 10.3 101470 83
2002-05-03 07:04:35 51°15.541 2°55.227 10.8 256 10.3 101470 83
2002-05-03 07:04:40 51°15.553 2°55.246 10.3 260 10.3 101470 83
2002-05-03 07:04:45 51°15.565 2°55.265 10.4 256 10.3 101470 83
2002-05-03 07:04:50 51°15.577 2°55.284 10.9 261 10.3 101470 83
2002-05-03 07:04:55 51°15.59 2°55.303 10.2 256 10.3 101470 83
2002-05-03 07:05:01 51°15.606 2°55.326 10.7 257 10.3 101470 83
2002-05-03 07:05:06 51°15.619 2°55.345 11 256 10.3 101470 83
2002-05-03 07:05:10 51°15.629 2°55.362 12 258 10.3 101470 83
2002-05-03 07:05:15 51°15.643 2°55.38 10.7 254 10.3 101470 83
2002-05-03 07:05:20 51°15.656 2°55.401 11.1 258 10.3 101470 83
2002-05-03 07:05:26 51°15.673 2°55.424 10.4 252 10.3 101470 83
2002-05-03 07:05:30 51°15.684 2°55.441 11.9 258 10.4 101470 83
2002-05-03 07:05:35 51°15.699 2°55.459 9.5 250 10.4 101470 83
2002-05-03 07:05:40 51°15.711 2°55.481 11.4 255 10.3 101470 83
2002-05-03 07:05:45 51°15.726 2°55.499 10.6 249 10.3 101470 83
2002-05-03 07:05:50 51°15.74 2°55.52 12 256 10.3 101470 83
2002-05-03 07:05:55 51°15.755 2°55.538 10.7 252 10.3 101470 83
2002-05-03 07:06:00 51°15.768 2°55.559 11.6 256 10.3 101480 83
2002-05-03 07:06:06 51°15.786 2°55.582 11.4 254 10.3 101480 83
2002-05-03 07:06:10 51°15.796 2°55.599 11.6 253 10.3 101470 83
2002-05-03 07:06:16 51°15.814 2°55.622 11.4 256 10.3 101470 83
2002-05-03 07:06:20 51°15.824 2°55.639 11.6 255 10.4 101470 83
2002-05-03 07:06:25 51°15.839 2°55.658 11.2 250 10.4 101470 83
2002-05-03 07:06:31 51°15.855 2°55.684 12.1 256 10.3 101470 83
2002-05-03 07:06:35 51°15.867 2°55.699 11.3 251 10.3 101470 83
2002-05-03 07:06:40 51°15.88 2°55.721 11.8 256 10.4 101470 83
2002-05-03 07:06:46 51°15.898 2°55.744 10.7 252 10.4 101470 83
2002-05-03 07:06:50 51°15.908 2°55.762 12.2 257 10.4 101470 83
2002-05-03 07:06:55 51°15.923 2°55.781 11.5 254 10.4 101470 83
2002-05-03 07:07:00 51°15.936 2°55.802 11.6 256 10.4 101470 83
2002-05-03 07:07:05 51°15.95 2°55.822 11.3 256 10.4 101470 83
2002-05-03 07:07:10 51°15.964 2°55.843 11.9 259 10.4 101470 83
2002-05-03 07:07:15 51°15.977 2°55.864 11.6 260 10.4 101470 83
2002-05-03 07:07:20 51°15.99 2°55.886 11.1 259 10.4 101480 83
2002-05-03 07:07:26 51°16.005 2°55.913 11.6 264 10.4 101480 83
2002-05-03 07:07:30 51°16.014 2°55.931 11 260 10.3 101470 83
2002-05-03 07:07:35 51°16.026 2°55.955 11.5 260 10.3 101470 83
2002-05-03 07:07:40 51°16.037 2°55.979 11.1 258 10.3 101470 83
2002-05-03 07:07:45 51°16.047 2°56.004 11.1 258 10.3 101470 83
2002-05-03 07:07:50 51°16.057 2°56.029 11.5 259 10.3 101470 83
2002-05-03 07:07:55 51°16.067 2°56.054 10.7 259 10.3 101470 83
2002-05-03 07:08:00 51°16.076 2°56.08 10.6 260 10.3 101470 83
2002-05-03 07:08:05 51°16.086 2°56.106 10.4 257 10.3 101470 83
2002-05-03 07:08:10 51°16.094 2°56.132 10.7 260 10.3 101470 83
2002-05-03 07:08:15 51°16.104 2°56.158 9.8 257 10.3 101470 83
2002-05-03 07:08:20 51°16.112 2°56.184 10.7 259 10.3 101470 83
2002-05-03 07:08:26 51°16.124 2°56.215 11.2 257 10.3 101470 83
2002-05-03 07:08:30 51°16.131 2°56.236 10.8 261 10.3 101470 83
2002-05-03 07:08:35 51°16.141 2°56.261 10.4 259 10.3 101470 83
2002-05-03 07:08:40 51°16.15 2°56.287 11.3 263 10.3 101480 83
2002-05-03 07:08:45 51°16.161 2°56.312 10.3 257 10.3 101480 83
2002-05-03 07:08:51 51°16.172 2°56.343 10.5 257 10.3 101480 83
2002-05-03 07:08:55 51°16.181 2°56.363 10.7 256 10.3 101480 83
2002-05-03 07:09:00 51°16.191 2°56.388 10.8 259 10.3 101480 82
2002-05-03 07:09:06 51°16.203 2°56.418 10.5 257 10.3 101480 82
2002-05-03 07:09:10 51°16.211 2°56.439 11.5 258 10.3 101470 83
2002-05-03 07:09:15 51°16.222 2°56.463 11 256 10.3 101470 83
2002-05-03 07:09:20 51°16.232 2°56.489 10.5 256 10.3 101480 83
2002-05-03 07:09:25 51°16.242 2°56.513 10.7 257 10.3 101480 83
2002-05-03 07:09:30 51°16.252 2°56.539 11.2 257 10.3 101480 83
2002-05-03 07:09:35 51°16.263 2°56.564 10 254 10.3 101480 83
2002-05-03 07:09:40 51°16.272 2°56.59 11.2 260 10.3 101480 83
2002-05-03 07:09:45 51°16.284 2°56.614 10.8 254 10.3 101480 83
2002-05-03 07:09:50 51°16.293 2°56.64 11.7 259 10.4 101480 83
2002-05-03 07:09:55 51°16.304 2°56.664 10.8 257 10.4 101480 83
2002-05-03 07:10:00 51°16.314 2°56.69 10.9 260 10.4 101480 83
2002-05-03 07:10:06 51°16.326 2°56.719 10.9 258 10.4 101480 83
2002-05-03 07:10:10 51°16.334 2°56.74 10.7 258 10.4 101470 83
2002-05-03 07:10:15 51°16.345 2°56.765 10.3 256 10.4 101470 83
2002-05-03 07:10:20 51°16.354 2°56.791 11.6 258 10.4 101480 83
2002-05-03 07:10:25 51°16.365 2°56.815 11 254 10.4 101480 83
2002-05-03 07:10:30 51°16.374 2°56.841 11.4 257 10.3 101480 82
2002-05-03 07:10:35 51°16.385 2°56.865 10.6 251 10.3 101480 82
2002-05-03 07:10:40 51°16.395 2°56.891 11.2 258 10.3 101480 82
2002-05-03 07:10:46 51°16.407 2°56.921 10.5 253 10.3 101480 82
2002-05-03 07:10:50 51°16.415 2°56.942 11.2 258 10.3 101470 82
2002-05-03 07:10:55 51°16.426 2°56.966 10.7 255 10.3 101470 82
2002-05-03 07:11:00 51°16.435 2°56.992 11.5 257 10.3 101480 82
2002-05-03 07:11:06 51°16.448 2°57.021 10.5 254 10.3 101480 82
2002-05-03 07:11:10 51°16.456 2°57.041 10.4 261 10.3 101480 82
2002-05-03 07:11:15 51°16.467 2°57.066 11.1 255 10.3 101480 82
2002-05-03 07:11:20 51°16.476 2°57.092 11.4 261 10.4 101480 82
2002-05-03 07:11:26 51°16.49 2°57.121 10.3 253 10.4 101480 82
2002-05-03 07:11:30 51°16.497 2°57.142 10.8 262 10.4 101480 82
2002-05-03 07:11:35 51°16.508 2°57.166 10.1 254 10.4 101480 82
2002-05-03 07:11:40 51°16.517 2°57.192 11 258 10.4 101480 82
2002-05-03 07:11:45 51°16.528 2°57.216 9.6 252 10.4 101480 82
2002-05-03 07:11:50 51°16.537 2°57.243 11.3 263 10.4 101480 82
2002-05-03 07:11:55 51°16.547 2°57.268 11 253 10.4 101480 82
2002-05-03 07:12:00 51°16.556 2°57.294 10.9 259 10.4 101480 83
2002-05-03 07:12:06 51°16.568 2°57.325 9.9 252 10.4 101480 83
2002-05-03 07:12:10 51°16.575 2°57.346 10.7 259 10.4 101480 83
2002-05-03 07:12:15 51°16.585 2°57.371 10.8 257 10.4 101480 83
2002-05-03 07:12:20 51°16.593 2°57.397 10.5 263 10.4 101480 82
2002-05-03 07:12:26 51°16.605 2°57.428 11.3 255 10.4 101480 82
2002-05-03 07:12:30 51°16.613 2°57.449 11.1 264 10.4 101470 82
2002-05-03 07:12:35 51°16.623 2°57.474 10.9 256 10.4 101470 82
2002-05-03 07:12:40 51°16.632 2°57.5 10.4 261 10.3 101480 82
2002-05-03 07:12:46 51°16.643 2°57.531 10.6 259 10.3 101480 82
2002-05-03 07:12:50 51°16.65 2°57.552 10.4 263 10.4 101470 82
2002-05-03 07:12:55 51°16.661 2°57.577 10.8 260 10.4 101470 82
2002-05-03 07:13:00 51°16.67 2°57.603 10.6 265 10.4 101480 82
2002-05-03 07:13:06 51°16.681 2°57.634 9.9 254 10.4 101480 82
2002-05-03 07:13:10 51°16.689 2°57.654 10.2 258 10.4 101480 82
2002-05-03 07:13:15 51°16.698 2°57.68 9.8 256 10.4 101480 82
2002-05-03 07:13:20 51°16.708 2°57.705 11.1 258 10.4 101470 82
2002-05-03 07:13:25 51°16.718 2°57.73 11.4 255 10.4 101470 82
2002-05-03 07:13:30 51°16.727 2°57.757 11.2 258 10.4 101470 82
2002-05-03 07:13:35 51°16.737 2°57.782 10.6 251 10.4 101470 82
2002-05-03 07:13:40 51°16.746 2°57.808 11.5 259 10.4 101470 83
2002-05-03 07:13:46 51°16.758 2°57.838 11.1 255 10.4 101470 83
2002-05-03 07:13:50 51°16.765 2°57.859 11.8 258 10.4 101470 83
2002-05-03 07:13:55 51°16.776 2°57.884 10.8 255 10.4 101470 83
2002-05-03 07:14:00 51°16.785 2°57.91 11.1 261 10.4 101470 82
2002-05-03 07:14:06 51°16.797 2°57.94 10.4 255 10.4 101470 82
2002-05-03 07:14:10 51°16.804 2°57.961 10.6 260 10.4 101460 82
2002-05-03 07:14:16 51°16.816 2°57.991 10 256 10.4 101460 82
2002-05-03 07:14:20 51°16.824 2°58.012 10.6 259 10.4 101470 82
2002-05-03 07:14:25 51°16.834 2°58.037 10.2 255 10.4 101470 82
2002-05-03 07:14:30 51°16.843 2°58.063 10.3 257 10.4 101470 81
2002-05-03 07:14:36 51°16.855 2°58.094 9.7 252 10.4 101470 81
2002-05-03 07:14:40 51°16.862 2°58.115 11 260 10.4 101470 81
2002-05-03 07:14:45 51°16.872 2°58.14 10.4 257 10.4 101470 81
2002-05-03 07:14:50 51°16.882 2°58.166 11.3 258 10.4 101470 81
2002-05-03 07:14:55 51°16.891 2°58.192 11.2 256 10.4 101470 81
2002-05-03 07:15:00 51°16.901 2°58.218 10.5 258 10.4 101480 81
2002-05-03 07:15:05 51°16.911 2°58.244 9.8 257 10.4 101480 81
2002-05-03 07:15:10 51°16.92 2°58.27 10.7 258 10.4 101470 82
2002-05-03 07:15:15 51°16.93 2°58.295 9.5 253 10.4 101470 82
2002-05-03 07:15:20 51°16.94 2°58.321 10 252 10.4 101460 82
2002-05-03 07:15:25 51°16.949 2°58.347 10.7 250 10.4 101460 82
2002-05-03 07:15:30 51°16.959 2°58.372 10.2 253 10.4 101470 81
2002-05-03 07:15:35 51°16.969 2°58.399 10.5 251 10.4 101470 81
2002-05-03 07:15:40 51°16.98 2°58.424 10.2 250 10.4 101470 82
2002-05-03 07:15:46 51°16.99 2°58.456 11.4 252 10.4 101470 82
2002-05-03 07:15:50 51°16.999 2°58.476 10.2 249 10.4 101470 82
2002-05-03 07:15:55 51°17.008 2°58.503 10.9 256 10.4 101470 82
2002-05-03 07:16:00 51°17.019 2°58.528 10.1 246 10.4 101470 82
2002-05-03 07:16:06 51°17.029 2°58.56 9.5 253 10.4 101470 82
2002-05-03 07:16:10 51°17.038 2°58.58 10.1 251 10.4 101470 81
2002-05-03 07:16:15 51°17.047 2°58.607 10.1 252 10.4 101470 81
2002-05-03 07:16:20 51°17.058 2°58.632 9.6 253 10.4 101470 81
2002-05-03 07:16:25 51°17.066 2°58.659 10 253 10.4 101470 81
2002-05-03 07:16:30 51°17.077 2°58.684 10.7 248 10.4 101470 81
2002-05-03 07:16:35 51°17.086 2°58.712 11.3 255 10.4 101470 81
2002-05-03 07:16:40 51°17.097 2°58.736 9.6 250 10.4 101470 81
2002-05-03 07:16:46 51°17.107 2°58.769 11.3 257 10.4 101470 81
2002-05-03 07:16:50 51°17.116 2°58.788 10 252 10.4 101460 81
2002-05-03 07:16:55 51°17.125 2°58.815 11.1 256 10.4 101460 81
2002-05-03 07:17:00 51°17.136 2°58.84 10.6 254 10.4 101470 81
2002-05-03 07:17:05 51°17.144 2°58.867 10.3 257 10.4 101470 81
2002-05-03 07:17:10 51°17.155 2°58.892 10.8 253 10.4 101470 82
2002-05-03 07:17:15 51°17.164 2°58.919 11.7 254 10.4 101470 82
2002-05-03 07:17:21 51°17.177 2°58.949 10.5 247 10.4 101470 82
2002-05-03 07:17:25 51°17.183 2°58.971 10.5 253 10.4 101470 82
2002-05-03 07:17:30 51°17.194 2°58.996 11.4 250 10.5 101470 82
2002-05-03 07:17:35 51°17.202 2°59.023 11.8 256 10.5 101470 82
2002-05-03 07:17:40 51°17.212 2°59.049 9.9 250 10.4 101470 82
2002-05-03 07:17:46 51°17.222 2°59.082 10.7 259 10.4 101470 82
2002-05-03 07:17:51 51°17.232 2°59.108 9.5 251 10.5 101480 82
2002-05-03 07:17:56 51°17.24 2°59.135 10.5 256 10.5 101480 82
2002-05-03 07:18:00 51°17.248 2°59.157 10.3 253 10.5 101470 82
2002-05-03 07:18:05 51°17.255 2°59.184 10.5 256 10.5 101470 82
2002-05-03 07:18:10 51°17.265 2°59.211 9.5 255 10.4 101470 81
2002-05-03 07:18:15 51°17.273 2°59.238 10.2 257 10.4 101470 81
2002-05-03 07:18:20 51°17.281 2°59.265 10 253 10.4 101480 81
2002-05-03 07:18:26 51°17.292 2°59.297 10 253 10.4 101480 81
2002-05-03 07:18:30 51°17.299 2°59.319 9.8 250 10.4 101470 81
2002-05-03 07:18:35 51°17.308 2°59.346 10.3 249 10.4 101470 81
2002-05-03 07:18:40 51°17.316 2°59.373 10.5 252 10.4 101480 81
2002-05-03 07:18:45 51°17.325 2°59.4 9.5 250 10.4 101480 81
2002-05-03 07:18:50 51°17.334 2°59.427 10.2 253 10.5 101490 81
2002-05-03 07:18:55 51°17.343 2°59.454 9.9 251 10.5 101490 81
2002-05-03 07:19:00 51°17.351 2°59.482 10.1 256 10.4 101480 81
2002-05-03 07:19:05 51°17.361 2°59.508 10.1 250 10.4 101480 81
2002-05-03 07:19:10 51°17.369 2°59.535 9.9 255 10.5 101480 81
2002-05-03 07:19:16 51°17.38 2°59.567 10.6 254 10.5 101480 81
2002-05-03 07:19:20 51°17.388 2°59.589 10.9 256 10.5 101480 81
2002-05-03 07:19:25 51°17.397 2°59.616 10.5 257 10.5 101480 81
2002-05-03 07:19:30 51°17.406 2°59.642 10.4 254 10.5 101480 81
2002-05-03 07:19:35 51°17.415 2°59.669 10.7 254 10.5 101480 81
2002-05-03 07:19:40 51°17.425 2°59.694 9.4 251 10.5 101470 82
2002-05-03 07:19:45 51°17.435 2°59.721 11.1 257 10.5 101470 82
2002-05-03 07:19:50 51°17.446 2°59.745 10.9 252 10.5 101470 82
2002-05-03 07:19:56 51°17.457 2°59.777 11.3 257 10.5 101470 82
2002-05-03 07:20:00 51°17.467 2°59.796 10.8 250 10.5 101480 82
2002-05-03 07:20:05 51°17.476 2°59.822 11.2 257 10.5 101480 82
2002-05-03 07:20:10 51°17.488 2°59.846 10.9 250 10.5 101480 82
2002-05-03 07:20:15 51°17.498 2°59.872 11.4 257 10.5 101480 82
2002-05-03 07:20:20 51°17.51 2°59.896 10.8 251 10.5 101480 81
2002-05-03 07:20:25 51°17.52 2°59.922 11.9 256 10.5 101480 81
2002-05-03 07:20:30 51°17.531 2°59.946 10.1 251 10.5 101470 82
2002-05-03 07:20:36 51°17.543 2°59.977 11.4 257 10.5 101470 82
2002-05-03 07:20:40 51°17.553 2°59.997 10.8 249 10.4 101470 82
2002-05-03 07:20:45 51°17.562 3°0.023 11.4 258 10.4 101470 82
2002-05-03 07:20:50 51°17.574 3°0.047 10.2 251 10.5 101470 81
2002-05-03 07:20:56 51°17.586 3°0.079 11.3 259 10.5 101470 81
2002-05-03 07:21:00 51°17.595 3°0.098 9.5 251 10.4 101480 81
2002-05-03 07:21:05 51°17.604 3°0.125 11.4 259 10.4 101480 81
2002-05-03 07:21:10 51°17.615 3°0.149 10.2 253 10.4 101470 81
2002-05-03 07:21:16 51°17.626 3°0.18 10.7 260 10.4 101470 81
2002-05-03 07:21:20 51°17.635 3°0.2 8.6 253 10.4 101470 81
2002-05-03 07:21:25 51°17.644 3°0.227 10.8 259 10.4 101470 81
2002-05-03 07:21:30 51°17.655 3°0.251 9.8 250 10.4 101480 81
2002-05-03 07:21:36 51°17.667 3°0.282 10.9 258 10.4 101480 81
2002-05-03 07:21:40 51°17.676 3°0.302 9.7 250 10.4 101480 81
2002-05-03 07:21:45 51°17.685 3°0.328 11 259 10.4 101480 81
2002-05-03 07:21:50 51°17.697 3°0.353 10.6 254 10.4 101480 81
2002-05-03 07:21:56 51°17.709 3°0.384 10.4 258 10.4 101480 81
2002-05-03 07:22:00 51°17.718 3°0.403 10.1 250 10.4 101480 81
2002-05-03 07:22:05 51°17.727 3°0.43 10.3 258 10.4 101480 81
2002-05-03 07:22:10 51°17.738 3°0.454 10.2 253 10.4 101480 81
2002-05-03 07:22:16 51°17.75 3°0.485 10.9 261 10.4 101480 81
2002-05-03 07:22:20 51°17.759 3°0.505 10.2 255 10.4 101480 82
2002-05-03 07:22:25 51°17.769 3°0.531 10.6 262 10.4 101480 82
2002-05-03 07:22:30 51°17.78 3°0.556 10.8 256 10.4 101480 82
2002-05-03 07:22:35 51°17.79 3°0.582 10 259 10.4 101480 82
2002-05-03 07:22:40 51°17.8 3°0.607 9.8 251 10.5 101480 82
2002-05-03 07:22:45 51°17.81 3°0.633 10.7 255 10.5 101480 82
2002-05-03 07:22:50 51°17.82 3°0.658 10.2 252 10.5 101480 82
2002-05-03 07:22:56 51°17.833 3°0.688 11.8 254 10.5 101480 82
2002-05-03 07:23:00 51°17.841 3°0.709 11 253 10.5 101480 82
2002-05-03 07:23:05 51°17.851 3°0.735 11.2 257 10.5 101480 82
2002-05-03 07:23:10 51°17.861 3°0.76 10 253 10.5 101480 82
2002-05-03 07:23:16 51°17.874 3°0.79 11.5 256 10.5 101480 82
2002-05-03 07:23:20 51°17.882 3°0.811 10.1 252 10.5 101480 82
2002-05-03 07:23:25 51°17.892 3°0.836 10 255 10.5 101480 82
2002-05-03 07:23:30 51°17.902 3°0.862 10.7 250 10.5 101480 82
2002-05-03 07:23:36 51°17.915 3°0.892 10.7 254 10.5 101480 82
2002-05-03 07:23:40 51°17.922 3°0.913 10.1 252 10.5 101480 82
2002-05-03 07:23:45 51°17.933 3°0.938 10.4 257 10.5 101480 82
2002-05-03 07:23:50 51°17.943 3°0.964 10.7 254 10.5 101480 82
2002-05-03 07:23:56 51°17.956 3°0.993 10.9 254 10.5 101480 82
2002-05-03 07:24:00 51°17.964 3°1.015 10.2 255 10.4 101480 82
2002-05-03 07:24:05 51°17.975 3°1.04 10 253 10.4 101480 82
2002-05-03 07:24:10 51°17.985 3°1.066 9.9 256 10.4 101490 82
2002-05-03 07:24:16 51°17.999 3°1.096 9.8 253 10.4 101490 82
2002-05-03 07:24:20 51°18.006 3°1.117 10.1 257 10.5 101490 82
2002-05-03 07:24:25 51°18.017 3°1.141 9.3 252 10.5 101490 82
2002-05-03 07:24:30 51°18.027 3°1.168 10 259 10.5 101490 82
2002-05-03 07:24:36 51°18.04 3°1.197 8.9 251 10.5 101490 82
2002-05-03 07:24:40 51°18.048 3°1.219 10.4 260 10.5 101490 82
2002-05-03 07:24:45 51°18.059 3°1.243 8.7 251 10.5 101490 82
2002-05-03 07:24:51 51°18.071 3°1.275 9.9 258 10.5 101490 82
2002-05-03 07:24:55 51°18.08 3°1.294 10 249 10.5 101490 82
2002-05-03 07:25:00 51°18.09 3°1.321 11 255 10.5 101490 82
2002-05-03 07:25:06 51°18.103 3°1.351 9.5 252 10.5 101490 82
2002-05-03 07:25:10 51°18.111 3°1.372 10.6 260 10.5 101490 82
2002-05-03 07:25:15 51°18.121 3°1.397 10.6 258 10.5 101490 82
2002-05-03 07:25:20 51°18.131 3°1.423 11.2 262 10.5 101480 82
2002-05-03 07:25:26 51°18.144 3°1.454 9.5 248 10.5 101480 82
2002-05-03 07:25:31 51°18.154 3°1.48 11.9 255 10.5 101490 82
2002-05-03 07:25:35 51°18.163 3°1.5 10.7 248 10.5 101490 82
2002-05-03 07:25:40 51°18.172 3°1.526 10.6 255 10.5 101490 82
2002-05-03 07:25:45 51°18.183 3°1.551 11 248 10.5 101490 82
2002-05-03 07:25:51 51°18.195 3°1.582 11.2 255 10.5 101490 82
2002-05-03 07:25:55 51°18.203 3°1.603 10.6 252 10.5 101490 82
2002-05-03 07:26:00 51°18.213 3°1.628 10.2 249 10.5 101490 82
2002-05-03 07:26:05 51°18.224 3°1.654 10.5 248 10.5 101490 82
2002-05-03 07:26:10 51°18.234 3°1.679 10.8 250 10.4 101490 81
2002-05-03 07:26:15 51°18.244 3°1.705 10.1 253 10.4 101490 81
2002-05-03 07:26:20 51°18.255 3°1.729 10.3 249 10.4 101490 81
2002-05-03 07:26:26 51°18.266 3°1.761 10.2 250 10.4 101490 81
2002-05-03 07:26:31 51°18.278 3°1.785 10.6 248 10.5 101490 81
2002-05-03 07:26:35 51°18.285 3°1.806 9.6 252 10.5 101490 81
2002-05-03 07:26:40 51°18.296 3°1.83 11.1 249 10.4 101480 81
2002-05-03 07:26:46 51°18.308 3°1.862 10.9 254 10.4 101480 81
2002-05-03 07:26:50 51°18.317 3°1.881 9.7 252 10.5 101490 80
2002-05-03 07:26:56 51°18.328 3°1.912 11 256 10.5 101490 80
2002-05-03 07:27:00 51°18.337 3°1.931 9.8 250 10.5 101490 80
2002-05-03 07:27:06 51°18.349 3°1.962 11.4 258 10.5 101490 80
2002-05-03 07:27:10 51°18.357 3°1.982 10.8 254 10.5 101490 80
2002-05-03 07:27:15 51°18.367 3°2.008 11.2 257 10.5 101490 80
2002-05-03 07:27:20 51°18.378 3°2.032 10.1 247 10.5 101490 80
2002-05-03 07:27:25 51°18.387 3°2.058 10.9 257 10.5 101490 80
2002-05-03 07:27:30 51°18.399 3°2.082 10.2 251 10.5 101490 80
2002-05-03 07:27:35 51°18.408 3°2.108 10.9 258 10.5 101490 80
2002-05-03 07:27:40 51°18.419 3°2.133 9.6 253 10.5 101490 80
2002-05-03 07:27:46 51°18.431 3°2.163 10.9 258 10.5 101490 80
2002-05-03 07:27:50 51°18.44 3°2.183 9.8 250 10.5 101490 80
2002-05-03 07:27:55 51°18.449 3°2.208 10 255 10.5 101490 80
2002-05-03 07:28:00 51°18.46 3°2.232 10.7 247 10.5 101490 80
2002-05-03 07:28:06 51°18.472 3°2.262 11.4 253 10.5 101490 80
2002-05-03 07:28:10 51°18.48 3°2.283 10.9 251 10.5 101480 80
2002-05-03 07:28:15 51°18.49 3°2.308 10.9 257 10.5 101480 80
2002-05-03 07:28:20 51°18.501 3°2.333 10.9 251 10.5 101490 80
2002-05-03 07:28:26 51°18.513 3°2.362 11.2 255 10.5 101490 80
2002-05-03 07:28:31 51°18.522 3°2.388 10 250 10.5 101490 80
2002-05-03 07:28:35 51°18.531 3°2.407 10.9 254 10.5 101490 80
2002-05-03 07:28:40 51°18.541 3°2.432 10.4 253 10.5 101490 80
2002-05-03 07:28:45 51°18.551 3°2.457 10.1 253 10.5 101490 80
2002-05-03 07:28:51 51°18.563 3°2.487 10.1 250 10.5 101490 80
2002-05-03 07:28:56 51°18.574 3°2.511 10.1 253 10.5 101490 80
2002-05-03 07:29:00 51°18.581 3°2.531 11.4 254 10.5 101490 80
2002-05-03 07:29:05 51°18.592 3°2.555 10 252 10.5 101490 80
2002-05-03 07:29:10 51°18.601 3°2.581 10.2 255 10.5 101490 79
2002-05-03 07:29:15 51°18.612 3°2.605 9.4 250 10.5 101490 79
2002-05-03 07:29:21 51°18.623 3°2.636 10.1 253 10.5 101490 79
2002-05-03 07:29:26 51°18.634 3°2.659 9.5 253 10.5 101490 79
2002-05-03 07:29:30 51°18.641 3°2.68 10.3 255 10.6 101490 79
2002-05-03 07:29:35 51°18.652 3°2.704 10 248 10.6 101490 79
2002-05-03 07:29:40 51°18.661 3°2.73 9.4 254 10.6 101500 79
2002-05-03 07:29:46 51°18.674 3°2.758 9.3 250 10.6 101500 79
2002-05-03 07:29:50 51°18.681 3°2.779 10.3 256 10.6 101490 79
2002-05-03 07:29:55 51°18.692 3°2.803 10.3 249 10.6 101490 79
2002-05-03 07:30:00 51°18.701 3°2.828 10.8 252 10.6 101490 79
2002-05-03 07:30:06 51°18.714 3°2.857 10.2 248 10.6 101490 79
2002-05-03 07:30:10 51°18.721 3°2.878 11.2 255 10.6 101500 79
2002-05-03 07:30:15 51°18.732 3°2.901 10.9 248 10.6 101500 79
2002-05-03 07:30:20 51°18.742 3°2.927 11 254 10.6 101500 79
2002-05-03 07:30:25 51°18.752 3°2.951 10.1 245 10.6 101500 79
2002-05-03 07:30:31 51°18.764 3°2.981 10.5 250 10.6 101490 79
2002-05-03 07:30:35 51°18.772 3°3 10.6 246 10.6 101490 79
2002-05-03 07:30:40 51°18.782 3°3.025 10.9 255 10.6 101490 79
2002-05-03 07:30:45 51°18.792 3°3.049 11 251 10.6 101490 79
2002-05-03 07:30:50 51°18.802 3°3.074 10.2 254 10.6 101490 79
2002-05-03 07:30:55 51°18.812 3°3.099 10.6 246 10.6 101490 79
2002-05-03 07:31:00 51°18.822 3°3.123 10.1 249 10.5 101490 79
2002-05-03 07:31:06 51°18.834 3°3.154 10.8 252 10.5 101490 79
2002-05-03 07:31:11 51°18.845 3°3.177 10 247 10.6 101490 79
2002-05-03 07:31:15 51°18.852 3°3.198 9.6 252 10.6 101490 79
2002-05-03 07:31:20 51°18.863 3°3.221 10.1 249 10.6 101490 79
2002-05-03 07:31:25 51°18.872 3°3.247 9.5 253 10.6 101490 79
2002-05-03 07:31:30 51°18.883 3°3.271 10.2 248 10.6 101490 79
2002-05-03 07:31:35 51°18.892 3°3.296 11.5 256 10.6 101490 79
2002-05-03 07:31:40 51°18.904 3°3.32 10 249 10.6 101490 79
2002-05-03 07:31:46 51°18.915 3°3.35 10.6 254 10.6 101490 79
2002-05-03 07:31:51 51°18.926 3°3.374 10.3 251 10.6 101490 79
2002-05-03 07:31:55 51°18.933 3°3.394 10.4 256 10.6 101490 79
2002-05-03 07:32:00 51°18.945 3°3.418 10.2 249 10.6 101480 79
2002-05-03 07:32:06 51°18.956 3°3.448 10.5 256 10.6 101480 79
2002-05-03 07:32:10 51°18.965 3°3.467 10.1 250 10.6 101490 79
2002-05-03 07:32:15 51°18.974 3°3.492 10.5 257 10.6 101490 79
2002-05-03 07:32:20 51°18.985 3°3.516 10.2 251 10.6 101490 79
2002-05-03 07:32:26 51°18.997 3°3.546 10.5 256 10.6 101490 79
2002-05-03 07:32:30 51°19.006 3°3.566 9.3 253 10.6 101490 79
2002-05-03 07:32:35 51°19.016 3°3.591 10.4 253 10.6 101490 79
2002-05-03 07:32:40 51°19.026 3°3.616 11.1 254 10.6 101490 79
2002-05-03 07:32:46 51°19.039 3°3.645 11.1 255 10.6 101490 79
2002-05-03 07:32:51 51°19.048 3°3.671 10.8 256 10.6 101490 79
2002-05-03 07:32:55 51°19.057 3°3.69 10.8 260 10.6 101490 79
2002-05-03 07:33:00 51°19.066 3°3.715 11.2 250 10.6 101490 79
2002-05-03 07:33:06 51°19.079 3°3.744 10.4 249 10.6 101490 79
2002-05-03 07:33:10 51°19.086 3°3.764 10.6 251 10.6 101490 79
2002-05-03 07:33:15 51°19.097 3°3.788 11 249 10.6 101490 79
2002-05-03 07:33:20 51°19.106 3°3.814 11.4 250 10.6 101490 79
2002-05-03 07:33:25 51°19.117 3°3.838 10.9 247 10.6 101490 79
2002-05-03 07:33:30 51°19.126 3°3.863 11.3 252 10.6 101500 79
2002-05-03 07:33:35 51°19.137 3°3.887 11.1 250 10.6 101500 79
2002-05-03 07:33:40 51°19.147 3°3.912 10.9 254 10.6 101500 79
2002-05-03 07:33:46 51°19.16 3°3.941 10.6 254 10.6 101500 79
2002-05-03 07:33:50 51°19.167 3°3.962 11.2 257 10.6 101500 79
2002-05-03 07:33:55 51°19.178 3°3.985 10.9 255 10.6 101500 79
2002-05-03 07:34:00 51°19.187 3°4.011 10.8 259 10.6 101490 79
2002-05-03 07:34:05 51°19.199 3°4.034 10 253 10.6 101490 79
2002-05-03 07:34:10 51°19.208 3°4.059 11.4 256 10.6 101500 79
2002-05-03 07:34:15 51°19.219 3°4.082 10.8 249 10.6 101500 79
2002-05-03 07:34:20 51°19.228 3°4.108 10.7 254 10.6 101490 79
2002-05-03 07:34:25 51°19.24 3°4.131 11.4 248 10.6 101490 79
2002-05-03 07:34:31 51°19.251 3°4.161 10.7 253 10.6 101490 79
2002-05-03 07:34:35 51°19.26 3°4.179 10 250 10.6 101490 79
2002-05-03 07:34:40 51°19.269 3°4.204 11.2 254 10.6 101490 79
2002-05-03 07:34:45 51°19.281 3°4.227 11.1 250 10.6 101490 79
2002-05-03 07:34:50 51°19.29 3°4.253 10.8 256 10.6 101500 79
2002-05-03 07:34:55 51°19.301 3°4.276 10.9 249 10.6 101500 79
2002-05-03 07:35:00 51°19.31 3°4.301 10.7 257 10.6 101500 79
2002-05-03 07:35:06 51°19.323 3°4.33 10.1 250 10.6 101500 79
2002-05-03 07:35:10 51°19.331 3°4.35 10.5 257 10.6 101490 79
2002-05-03 07:35:16 51°19.343 3°4.379 9.5 250 10.6 101490 79
2002-05-03 07:35:20 51°19.351 3°4.398 10.3 254 10.6 101490 79
2002-05-03 07:35:26 51°19.363 3°4.428 10.9 249 10.6 101490 79
2002-05-03 07:35:30 51°19.371 3°4.447 10.9 250 10.6 101490 79
2002-05-03 07:35:35 51°19.383 3°4.469 11.4 247 10.6 101490 79
2002-05-03 07:35:40 51°19.394 3°4.492 10.6 251 10.6 101500 79
2002-05-03 07:35:46 51°19.409 3°4.518 10.6 243 10.6 101500 79
2002-05-03 07:35:50 51°19.42 3°4.534 11.1 253 10.6 101490 79
2002-05-03 07:35:55 51°19.433 3°4.554 10.8 250 10.6 101490 79
2002-05-03 07:36:00 51°19.446 3°4.575 10.4 251 10.6 101490 79
2002-05-03 07:36:05 51°19.459 3°4.594 10.8 249 10.6 101490 79
2002-05-03 07:36:10 51°19.473 3°4.614 9.9 250 10.6 101490 79
2002-05-03 07:36:15 51°19.486 3°4.634 10.3 249 10.6 101490 79
2002-05-03 07:36:20 51°19.5 3°4.653 10.3 252 10.6 101490 79
2002-05-03 07:36:26 51°19.515 3°4.678 11.4 249 10.6 101490 79
2002-05-03 07:36:31 51°19.528 3°4.697 11.1 245 10.6 101490 79
2002-05-03 07:36:35 51°19.538 3°4.714 11.3 246 10.6 101490 79
2002-05-03 07:36:40 51°19.551 3°4.734 10.7 244 10.6 101490 79
2002-05-03 07:36:45 51°19.563 3°4.755 11.5 249 10.6 101490 79
2002-05-03 07:36:51 51°19.58 3°4.779 11.2 246 10.6 101490 79
2002-05-03 07:36:56 51°19.591 3°4.801 11.2 249 10.6 101490 79
2002-05-03 07:37:00 51°19.602 3°4.816 10.9 243 10.6 101490 79
2002-05-03 07:37:06 51°19.616 3°4.842 10.5 250 10.6 101490 79
2002-05-03 07:37:10 51°19.627 3°4.858 10.5 244 10.6 101490 78
2002-05-03 07:37:15 51°19.638 3°4.88 10.9 252 10.6 101490 78
2002-05-03 07:37:20 51°19.652 3°4.9 10 245 10.6 101490 78
2002-05-03 07:37:26 51°19.665 3°4.926 10.9 248 10.6 101490 78
2002-05-03 07:37:30 51°19.676 3°4.942 11 247 10.6 101490 78
2002-05-03 07:37:36 51°19.69 3°4.969 10.3 251 10.6 101490 78
2002-05-03 07:37:40 51°19.7 3°4.984 10 246 10.6 101490 78
2002-05-03 07:37:45 51°19.712 3°5.007 10.8 250 10.6 101490 78
2002-05-03 07:37:51 51°19.727 3°5.03 10.9 246 10.6 101490 78
2002-05-03 07:37:55 51°19.736 3°5.048 11.4 252 10.6 101490 78
2002-05-03 07:38:00 51°19.75 3°5.067 10.4 246 10.6 101490 78
2002-05-03 07:38:06 51°19.763 3°5.093 10.8 252 10.6 101490 78
2002-05-03 07:38:11 51°19.776 3°5.112 10.8 247 10.6 101490 78
2002-05-03 07:38:16 51°19.788 3°5.135 10.8 249 10.6 101490 78
2002-05-03 07:38:20 51°19.798 3°5.15 10.6 250 10.6 101490 78
2002-05-03 07:38:25 51°19.81 3°5.172 10.8 253 10.6 101490 78
2002-05-03 07:38:30 51°19.823 3°5.192 10 251 10.6 101490 78
2002-05-03 07:38:35 51°19.835 3°5.213 9.6 251 10.6 101490 78
2002-05-03 07:38:40 51°19.847 3°5.233 10.1 248 10.6 101490 78
2002-05-03 07:38:46 51°19.861 3°5.258 10.5 253 10.6 101490 78
2002-05-03 07:38:50 51°19.872 3°5.274 9.7 248 10.6 101490 78
2002-05-03 07:38:55 51°19.884 3°5.296 10.4 252 10.6 101490 78
2002-05-03 07:39:00 51°19.897 3°5.315 10.6 244 10.6 101490 78
2002-05-03 07:39:05 51°19.908 3°5.337 10.4 250 10.6 101490 78
2002-05-03 07:39:10 51°19.922 3°5.356 10.4 243 10.6 101490 78
2002-05-03 07:39:15 51°19.933 3°5.378 11.3 254 10.6 101490 78
2002-05-03 07:39:20 51°19.946 3°5.397 10.5 245 10.6 101490 78
2002-05-03 07:39:26 51°19.961 3°5.422 10.8 252 10.6 101490 78
2002-05-03 07:39:30 51°19.971 3°5.439 11.2 244 10.6 101490 79
2002-05-03 07:39:35 51°19.982 3°5.46 10.7 252 10.6 101490 79
2002-05-03 07:39:40 51°19.995 3°5.48 10.3 244 10.6 101490 79
2002-05-03 07:39:46 51°20.01 3°5.505 11.4 251 10.6 101490 79
2002-05-03 07:39:50 51°20.019 3°5.521 10.9 246 10.6 101490 79
2002-05-03 07:39:55 51°20.031 3°5.542 10.4 251 10.6 101490 79
2002-05-03 07:40:00 51°20.044 3°5.563 11 247 10.6 101490 79
2002-05-03 07:40:05 51°20.056 3°5.583 10.1 250 10.6 101490 79
2002-05-03 07:40:10 51°20.068 3°5.604 10.4 250 10.6 101490 78
2002-05-03 07:40:15 51°20.081 3°5.623 10.1 249 10.6 101490 78
2002-05-03 07:40:21 51°20.095 3°5.648 11.3 253 10.6 101500 78
2002-05-03 07:40:26 51°20.109 3°5.667 10.2 248 10.6 101500 78
2002-05-03 07:40:30 51°20.118 3°5.684 10.9 254 10.6 101500 78
2002-05-03 07:40:35 51°20.131 3°5.703 10.1 249 10.6 101500 78
2002-05-03 07:40:40 51°20.143 3°5.725 10.4 253 10.6 101500 78
2002-05-03 07:40:46 51°20.158 3°5.748 9.7 247 10.6 101500 78
2002-05-03 07:40:50 51°20.167 3°5.765 11 253 10.6 101500 78
2002-05-03 07:40:55 51°20.18 3°5.785 10.1 249 10.6 101500 78
2002-05-03 07:41:00 51°20.192 3°5.806 10.1 252 10.6 101500 78
2002-05-03 07:41:06 51°20.207 3°5.831 9.8 243 10.6 101500 78
2002-05-03 07:41:10 51°20.216 3°5.847 10.3 250 10.6 101500 78
2002-05-03 07:41:15 51°20.229 3°5.867 10.3 242 10.6 101500 78
2002-05-03 07:41:20 51°20.241 3°5.888 10.1 252 10.6 101490 78
2002-05-03 07:41:25 51°20.254 3°5.908 10.7 245 10.6 101490 78
2002-05-03 07:41:31 51°20.268 3°5.933 11.4 252 10.6 101500 78
2002-05-03 07:41:36 51°20.28 3°5.953 10.8 247 10.6 101500 78
2002-05-03 07:41:40 51°20.29 3°5.97 11.2 257 10.6 101500 78
2002-05-03 07:41:45 51°20.303 3°5.99 11 246 10.6 101500 78
2002-05-03 07:41:50 51°20.315 3°6.011 10.5 253 10.6 101500 79
2002-05-03 07:41:56 51°20.33 3°6.035 10.3 244 10.6 101500 79
2002-05-03 07:42:00 51°20.339 3°6.051 11.3 254 10.6 101490 78
2002-05-03 07:42:06 51°20.354 3°6.076 10.8 246 10.6 101490 78
2002-05-03 07:42:11 51°20.366 3°6.096 11.1 249 10.6 101500 78
2002-05-03 07:42:15 51°20.376 3°6.112 10.4 248 10.6 101500 78
2002-05-03 07:42:20 51°20.388 3°6.133 10.3 253 10.6 101500 78
2002-05-03 07:42:25 51°20.4 3°6.153 10.2 250 10.6 101500 78
2002-05-03 07:42:31 51°20.415 3°6.177 10.4 252 10.6 101500 78
2002-05-03 07:42:36 51°20.427 3°6.199 10.6 250 10.6 101500 78
2002-05-03 07:42:40 51°20.438 3°6.214 9.9 247 10.6 101500 78
2002-05-03 07:42:45 51°20.449 3°6.235 10.5 249 10.6 101500 78
2002-05-03 07:42:50 51°20.462 3°6.255 9.8 249 10.6 101500 78
2002-05-03 07:42:55 51°20.474 3°6.276 9.6 251 10.6 101500 78
2002-05-03 07:43:00 51°20.486 3°6.295 9.8 250 10.6 101490 78
2002-05-03 07:43:06 51°20.5 3°6.321 10.1 248 10.6 101490 78
2002-05-03 07:43:10 51°20.511 3°6.336 9.2 250 10.6 101500 78
2002-05-03 07:43:16 51°20.525 3°6.362 10.1 251 10.6 101500 78
2002-05-03 07:43:20 51°20.535 3°6.377 9.2 251 10.6 101490 78
2002-05-03 07:43:26 51°20.549 3°6.403 10.2 253 10.6 101490 78
2002-05-03 07:43:30 51°20.56 3°6.418 9.2 250 10.6 101500 78
2002-05-03 07:43:35 51°20.571 3°6.439 9.9 253 10.6 101500 78
2002-05-03 07:43:40 51°20.584 3°6.458 9.7 249 10.6 101500 78
2002-05-03 07:43:46 51°20.598 3°6.484 9.6 254 10.6 101500 78
2002-05-03 07:43:50 51°20.609 3°6.499 9.8 243 10.6 101500 78
2002-05-03 07:43:55 51°20.62 3°6.52 10.3 253 10.6 101500 78
2002-05-03 07:44:00 51°20.634 3°6.539 10.2 245 10.6 101500 78
2002-05-03 07:44:06 51°20.647 3°6.565 11.2 251 10.6 101500 78
2002-05-03 07:44:10 51°20.658 3°6.58 10.5 243 10.6 101490 79
2002-05-03 07:44:16 51°20.672 3°6.605 11.1 250 10.6 101490 79
2002-05-03 07:44:20 51°20.682 3°6.621 9.9 244 10.6 101490 79
2002-05-03 07:44:26 51°20.697 3°6.646 11.1 254 10.6 101490 79
2002-05-03 07:44:31 51°20.709 3°6.666 10.2 245 10.6 101500 79
2002-05-03 07:44:36 51°20.721 3°6.686 10.2 252 10.6 101500 79
2002-05-03 07:44:40 51°20.732 3°6.702 9.8 247 10.6 101500 79
2002-05-03 07:44:46 51°20.746 3°6.727 9.6 251 10.6 101500 79
2002-05-03 07:44:50 51°20.756 3°6.743 9.4 248 10.6 101500 78
2002-05-03 07:44:55 51°20.767 3°6.764 10.3 252 10.6 101500 78
2002-05-03 07:45:00 51°20.78 3°6.784 10.7 250 10.6 101500 78
2002-05-03 07:45:06 51°20.795 3°6.809 9.3 251 10.6 101500 78
2002-05-03 07:45:10 51°20.805 3°6.825 10.4 247 10.6 101500 78
2002-05-03 07:45:16 51°20.82 3°6.849 9.9 252 10.6 101500 78
2002-05-03 07:45:20 51°20.829 3°6.866 10.2 247 10.6 101500 78
2002-05-03 07:45:25 51°20.842 3°6.886 9.7 250 10.6 101500 78
2002-05-03 07:45:30 51°20.854 3°6.907 10.5 251 10.6 101500 78
2002-05-03 07:45:35 51°20.867 3°6.927 10.4 250 10.6 101500 78
2002-05-03 07:45:40 51°20.879 3°6.948 10.4 252 10.7 101500 79
2002-05-03 07:45:45 51°20.892 3°6.967 10.4 247 10.7 101500 79
2002-05-03 07:45:50 51°20.903 3°6.989 11.2 250 10.6 101500 79
2002-05-03 07:45:55 51°20.916 3°7.008 10.9 245 10.6 101500 79
2002-05-03 07:46:00 51°20.928 3°7.03 10.2 251 10.6 101500 79
2002-05-03 07:46:06 51°20.943 3°7.054 9.9 247 10.6 101500 79
2002-05-03 07:46:10 51°20.953 3°7.071 10 253 10.6 101500 79
2002-05-03 07:46:16 51°20.968 3°7.095 10 246 10.6 101500 79
2002-05-03 07:46:20 51°20.977 3°7.112 10.2 251 10.7 101500 79
2002-05-03 07:46:25 51°20.991 3°7.131 10.2 248 10.7 101500 79
2002-05-03 07:46:30 51°21.002 3°7.153 10.3 250 10.6 101500 79
2002-05-03 07:46:35 51°21.015 3°7.173 10.7 244 10.6 101500 79
2002-05-03 07:46:40 51°21.027 3°7.193 10.1 248 10.7 101500 78
2002-05-03 07:46:46 51°21.042 3°7.219 10.9 248 10.7 101500 78
2002-05-03 07:46:51 51°21.055 3°7.238 10.4 249 10.7 101500 78
2002-05-03 07:46:56 51°21.067 3°7.26 10.6 247 10.7 101500 78
2002-05-03 07:47:00 51°21.077 3°7.275 10.2 249 10.6 101500 78
2002-05-03 07:47:06 51°21.092 3°7.3 10.9 246 10.6 101500 78
2002-05-03 07:47:10 51°21.103 3°7.314 10.5 247 10.6 101500 78
2002-05-03 07:47:15 51°21.116 3°7.335 10.4 245 10.6 101500 78
2002-05-03 07:47:20 51°21.13 3°7.353 11 245 10.6 101500 78
2002-05-03 07:47:26 51°21.145 3°7.377 10.2 244 10.6 101500 78
2002-05-03 07:47:30 51°21.157 3°7.391 10.5 244 10.6 101500 78
2002-05-03 07:47:35 51°21.17 3°7.41 10.6 245 10.6 101500 78
2002-05-03 07:47:40 51°21.184 3°7.428 10.8 245 10.6 101500 78
2002-05-03 07:47:46 51°21.2 3°7.451 11 245 10.6 101500 78
2002-05-03 07:47:50 51°21.212 3°7.464 11.2 250 10.6 101490 78
2002-05-03 07:47:55 51°21.225 3°7.483 10.3 248 10.6 101490 78
2002-05-03 07:48:01 51°21.242 3°7.505 10.7 247 10.6 101500 78
2002-05-03 07:48:06 51°21.256 3°7.524 10.5 244 10.6 101500 78
2002-05-03 07:48:10 51°21.267 3°7.538 10.6 246 10.6 101490 78
2002-05-03 07:48:15 51°21.281 3°7.557 10.9 243 10.6 101490 78
2002-05-03 07:48:20 51°21.295 3°7.575 11.2 246 10.6 101490 78
2002-05-03 07:48:25 51°21.308 3°7.594 10.2 243 10.6 101490 78
2002-05-03 07:48:30 51°21.323 3°7.612 11 245 10.6 101500 78
2002-05-03 07:48:35 51°21.336 3°7.632 11.5 245 10.6 101500 78
2002-05-03 07:48:40 51°21.35 3°7.649 11.2 247 10.6 101500 78
2002-05-03 07:48:45 51°21.364 3°7.669 11 249 10.6 101500 78
2002-05-03 07:48:50 51°21.378 3°7.687 10.5 248 10.6 101500 78
2002-05-03 07:48:55 51°21.391 3°7.707 10.6 247 10.6 101500 78
2002-05-03 07:49:00 51°21.405 3°7.725 10.8 247 10.6 101500 78
2002-05-03 07:49:06 51°21.42 3°7.749 10.8 249 10.6 101500 78
2002-05-03 07:49:10 51°21.432 3°7.764 9.8 251 10.6 101490 78
2002-05-03 07:49:16 51°21.448 3°7.788 11.1 250 10.6 101490 78
2002-05-03 07:49:20 51°21.459 3°7.802 9.7 250 10.6 101500 78
2002-05-03 07:49:26 51°21.475 3°7.826 10.2 247 10.6 101500 78
2002-05-03 07:49:30 51°21.486 3°7.841 9.9 252 10.6 101500 78
2002-05-03 07:49:35 51°21.5 3°7.86 10.8 246 10.6 101500 78
2002-05-03 07:49:40 51°21.513 3°7.878 10.4 250 10.6 101490 78
2002-05-03 07:49:45 51°21.527 3°7.897 10.5 245 10.6 101490 78
2002-05-03 07:49:51 51°21.543 3°7.919 10.5 252 10.6 101500 78
2002-05-03 07:49:55 51°21.554 3°7.934 11.3 244 10.6 101500 78
2002-05-03 07:50:00 51°21.567 3°7.954 11.1 251 10.6 101500 78
2002-05-03 07:50:06 51°21.584 3°7.977 10.2 244 10.6 101500 78
2002-05-03 07:50:10 51°21.595 3°7.992 10.5 249 10.6 101500 78
2002-05-03 07:50:16 51°21.612 3°8.015 10.6 251 10.6 101500 78
2002-05-03 07:50:20 51°21.622 3°8.03 10.3 250 10.6 101500 78
2002-05-03 07:50:26 51°21.638 3°8.053 10.2 246 10.6 101500 78
2002-05-03 07:50:31 51°21.652 3°8.072 10.2 252 10.6 101500 78
2002-05-03 07:50:35 51°21.663 3°8.087 10.2 244 10.6 101500 78
2002-05-03 07:50:40 51°21.676 3°8.107 10.3 252 10.6 101500 78
2002-05-03 07:50:45 51°21.69 3°8.125 9.9 242 10.6 101500 78
2002-05-03 07:50:50 51°21.703 3°8.145 10.5 249 10.6 101500 78
2002-05-03 07:50:55 51°21.717 3°8.163 10.5 247 10.6 101500 78
2002-05-03 07:51:00 51°21.73 3°8.184 11.5 253 10.6 101500 78
2002-05-03 07:51:05 51°21.745 3°8.202 11 246 10.6 101500 78
2002-05-03 07:51:10 51°21.758 3°8.222 11.1 255 10.6 101500 78
2002-05-03 07:51:16 51°21.774 3°8.244 10.3 243 10.6 101500 78
2002-05-03 07:51:20 51°21.785 3°8.26 10.4 252 10.7 101500 78
2002-05-03 07:51:26 51°21.802 3°8.281 10.2 244 10.7 101500 78
2002-05-03 07:51:30 51°21.812 3°8.298 10.3 251 10.6 101500 78
2002-05-03 07:51:36 51°21.829 3°8.319 10.6 245 10.6 101500 78
2002-05-03 07:51:40 51°21.84 3°8.335 10.9 252 10.6 101500 78
2002-05-03 07:51:46 51°21.857 3°8.356 10.6 246 10.6 101500 78
2002-05-03 07:51:50 51°21.867 3°8.373 10.7 249 10.6 101510 78
2002-05-03 07:51:56 51°21.884 3°8.394 10.8 247 10.6 101510 78
2002-05-03 07:52:00 51°21.894 3°8.411 10.2 248 10.6 101510 78
2002-05-03 07:52:05 51°21.909 3°8.428 10.8 247 10.6 101510 78
2002-05-03 07:52:10 51°21.922 3°8.449 11.1 249 10.6 101500 78
2002-05-03 07:52:15 51°21.936 3°8.467 11.2 250 10.6 101500 78
2002-05-03 07:52:20 51°21.949 3°8.487 11.1 252 10.6 101510 78
2002-05-03 07:52:25 51°21.963 3°8.505 10.1 250 10.6 101510 78
2002-05-03 07:52:31 51°21.979 3°8.53 10.3 252 10.7 101510 78
2002-05-03 07:52:35 51°21.99 3°8.544 10.2 253 10.7 101510 78
2002-05-03 07:52:40 51°22.003 3°8.564 10.2 252 10.6 101500 78
2002-05-03 07:52:45 51°22.017 3°8.583 10.3 252 10.6 101500 78
2002-05-03 07:52:51 51°22.033 3°8.607 10.4 249 10.6 101500 78
2002-05-03 07:52:55 51°22.044 3°8.621 10.3 252 10.6 101500 78
2002-05-03 07:53:00 51°22.058 3°8.641 11.6 249 10.7 101500 78
2002-05-03 07:53:05 51°22.072 3°8.659 10.5 251 10.7 101500 78
2002-05-03 07:53:11 51°22.089 3°8.682 10.2 247 10.7 101500 78
2002-05-03 07:53:16 51°22.103 3°8.699 10.6 245 10.7 101500 78
2002-05-03 07:53:20 51°22.114 3°8.714 10.6 250 10.7 101500 78
2002-05-03 07:53:25 51°22.128 3°8.732 10.9 253 10.7 101500 78
2002-05-03 07:53:30 51°22.142 3°8.751 10.9 246 10.7 101500 78
2002-05-03 07:53:36 51°22.159 3°8.772 11 254 10.7 101500 78
2002-05-03 07:53:40 51°22.171 3°8.786 10.9 245 10.7 101500 78
2002-05-03 07:53:46 51°22.188 3°8.808 11.9 254 10.7 101500 78
2002-05-03 07:53:50 51°22.199 3°8.822 10.8 245 10.7 101500 78
2002-05-03 07:53:56 51°22.215 3°8.844 11.4 250 10.7 101500 78
2002-05-03 07:54:00 51°22.227 3°8.858 10.9 245 10.6 101500 78
2002-05-03 07:54:06 51°22.244 3°8.88 10.6 253 10.6 101500 78
2002-05-03 07:54:10 51°22.256 3°8.893 10.3 245 10.6 101500 78
2002-05-03 07:54:16 51°22.272 3°8.916 10.8 251 10.6 101500 78
2002-05-03 07:54:20 51°22.285 3°8.928 9.4 245 10.6 101500 78
2002-05-03 07:54:26 51°22.301 3°8.952 10.5 254 10.6 101500 78
2002-05-03 07:54:30 51°22.313 3°8.964 9.8 250 10.6 101500 78
2002-05-03 07:54:35 51°22.327 3°8.984 10.4 252 10.6 101500 78
2002-05-03 07:54:40 51°22.342 3°9 10.4 246 10.6 101500 78
2002-05-03 07:54:46 51°22.358 3°9.023 10.9 249 10.6 101500 78
2002-05-03 07:54:50 51°22.37 3°9.036 10.8 248 10.6 101500 78
2002-05-03 07:54:55 51°22.384 3°9.055 10.1 250 10.6 101500 78
2002-05-03 07:55:00 51°22.398 3°9.072 10 249 10.7 101500 78
2002-05-03 07:55:06 51°22.414 3°9.095 10.7 248 10.7 101500 78
2002-05-03 07:55:10 51°22.426 3°9.108 10.7 248 10.7 101510 78
2002-05-03 07:55:15 51°22.44 3°9.127 10.5 248 10.7 101510 78
2002-05-03 07:55:20 51°22.455 3°9.145 10.7 248 10.7 101500 78
2002-05-03 07:55:25 51°22.469 3°9.163 11 246 10.7 101500 78
2002-05-03 07:55:30 51°22.483 3°9.181 10.8 252 10.6 101500 78
2002-05-03 07:55:36 51°22.5 3°9.203 10.7 247 10.6 101500 78
2002-05-03 07:55:40 51°22.51 3°9.217 9.6 251 10.7 101500 79
2002-05-03 07:55:46 51°22.526 3°9.234 9.5 249 10.7 101500 79
2002-05-03 07:55:51 51°22.538 3°9.246 9.7 248 10.7 101510 79
2002-05-03 07:55:55 51°22.547 3°9.255 9.4 247 10.7 101510 79
2002-05-03 07:56:00 51°22.558 3°9.264 8.7 244 10.6 101500 78
2002-05-03 07:56:06 51°22.57 3°9.274 8.6 247 10.6 101500 78
2002-05-03 07:56:11 51°22.58 3°9.279 8.3 242 10.7 101510 79
2002-05-03 07:56:16 51°22.589 3°9.284 7.7 243 10.7 101510 79
2002-05-03 07:56:20 51°22.596 3°9.286 7.8 241 10.7 101510 78
2002-05-03 07:56:26 51°22.607 3°9.289 7.5 241 10.7 101510 78
2002-05-03 07:56:30 51°22.613 3°9.291 6.9 239 10.7 101510 78
2002-05-03 07:56:35 51°22.621 3°9.292 7 238 10.7 101510 78
2002-05-03 07:56:40 51°22.628 3°9.292 6.9 237 10.7 101510 78
2002-05-03 07:56:46 51°22.636 3°9.292 6.3 239 10.7 101510 78
2002-05-03 07:56:50 51°22.642 3°9.292 6.9 235 10.7 101510 78
2002-05-03 07:56:55 51°22.648 3°9.29 6.7 236 10.7 101510 78
2002-05-03 07:57:00 51°22.654 3°9.289 6.6 235 10.7 101510 78
2002-05-03 07:57:06 51°22.661 3°9.287 6.8 232 10.7 101510 78
2002-05-03 07:57:10 51°22.665 3°9.285 6.2 233 10.7 101520 78
2002-05-03 07:57:15 51°22.671 3°9.283 6.7 235 10.7 101520 78
2002-05-03 07:57:21 51°22.677 3°9.28 5.8 233 10.7 101520 78
2002-05-03 07:57:26 51°22.682 3°9.278 6.2 239 10.7 101520 78
2002-05-03 07:57:31 51°22.687 3°9.276 6.1 243 10.6 101510 78
2002-05-03 07:57:35 51°22.692 3°9.274 7 243 10.6 101510 78
2002-05-03 07:57:40 51°22.698 3°9.273 5.8 244 10.6 101520 78
2002-05-03 07:57:46 51°22.705 3°9.273 5.8 247 10.6 101520 78
2002-05-03 07:57:50 51°22.71 3°9.274 6.3 257 10.6 101520 78
2002-05-03 07:57:56 51°22.717 3°9.276 6.3 262 10.6 101520 78
2002-05-03 07:58:00 51°22.721 3°9.278 6.7 258 10.6 101510 78
2002-05-03 07:58:06 51°22.728 3°9.283 6.3 262 10.6 101510 78
2002-05-03 07:58:10 51°22.732 3°9.287 5.9 266 10.6 101520 78
2002-05-03 07:58:15 51°22.737 3°9.293 6 268 10.6 101520 78
2002-05-03 07:58:20 51°22.741 3°9.299 6.4 276 10.6 101510 78
2002-05-03 07:58:26 51°22.746 3°9.306 5.8 276 10.6 101510 78
2002-05-03 07:58:30 51°22.748 3°9.31 5.6 284 10.6 101510 78
2002-05-03 07:58:35 51°22.751 3°9.315 5.5 293 10.6 101510 78
2002-05-03 07:58:40 51°22.752 3°9.318 4 316 10.6 101510 78
2002-05-03 07:58:46 51°22.754 3°9.32 3.5 306 10.6 101510 78
2002-05-03 07:58:50 51°22.754 3°9.321 1.4 317 10.6 101510 78
2002-05-03 07:58:55 51°22.755 3°9.321 1.1 325 10.6 101510 78
2002-05-03 07:59:00 51°22.755 3°9.32 0.4 334 10.6 101510 78
2002-05-03 07:59:06 51°22.755 3°9.32 0.8 331 10.6 101510 78
2002-05-03 07:59:10 51°22.756 3°9.32 1.1 324 10.6 101510 78
2002-05-03 07:59:15 51°22.755 3°9.321 0.7 318 10.6 101510 78
2002-05-03 07:59:20 51°22.755 3°9.323 0.4 348 10.5 101520 78
2002-05-03 07:59:25 51°22.755 3°9.326 1.9 343 10.5 101520 78
2002-05-03 07:59:30 51°22.753 3°9.33 3.1 3 10.5 101520 78
2002-05-03 07:59:36 51°22.75 3°9.336 3.1 7 10.5 101520 78
2002-05-03 07:59:40 51°22.748 3°9.34 2.7 22 10.5 101520 78
2002-05-03 07:59:46 51°22.742 3°9.346 2.5 22 10.5 101520 78
2002-05-03 07:59:51 51°22.737 3°9.351 1.9 25 10.5 101520 78
2002-05-03 07:59:55 51°22.732 3°9.355 1.9 16 10.5 101520 78
2002-05-03 08:00:00 51°22.727 3°9.36 2.1 21 10.5 101520 78
2002-05-03 08:00:06 51°22.721 3°9.365 2.5 15 10.5 101520 78
2002-05-03 08:00:11 51°22.716 3°9.369 2.4 20 10.4 101520 78
2002-05-03 08:00:16 51°22.713 3°9.372 2.8 32 10.4 101520 78
2002-05-03 08:00:20 51°22.71 3°9.374 3 130 10.4 101520 78
2002-05-03 08:00:26 51°22.707 3°9.375 3.6 51 10.4 101520 78
2002-05-03 08:00:30 51°22.705 3°9.376 3.3 57 10.4 101520 78
2002-05-03 08:00:36 51°22.703 3°9.375 2.4 50 10.4 101520 78
2002-05-03 08:00:40 51°22.703 3°9.375 2.5 60 10.4 101520 78
2002-05-03 08:00:46 51°22.702 3°9.374 3.5 49 10.4 101520 78
2002-05-03 08:00:50 51°22.702 3°9.374 3.4 65 10.4 101520 78
2002-05-03 08:00:55 51°22.701 3°9.373 3.5 63 10.4 101520 78
2002-05-03 08:01:00 51°22.701 3°9.372 3.5 68 10.5 101520 79
2002-05-03 08:01:06 51°22.701 3°9.371 3 68 10.5 101520 79
2002-05-03 08:01:10 51°22.7 3°9.37 3.3 64 10.5 101520 78
2002-05-03 08:01:15 51°22.7 3°9.369 3.5 66 10.5 101520 78
2002-05-03 08:01:20 51°22.699 3°9.368 3.7 74 10.5 101520 78
2002-05-03 08:01:26 51°22.699 3°9.367 3.3 73 10.5 101520 78
2002-05-03 08:01:31 51°22.698 3°9.366 4 74 10.5 101520 78
2002-05-03 08:01:35 51°22.698 3°9.365 3.6 69 10.5 101520 78
2002-05-03 08:01:40 51°22.697 3°9.364 3.7 75 10.5 101520 79
2002-05-03 08:01:46 51°22.697 3°9.363 3.5 75 10.5 101520 79
2002-05-03 08:01:51 51°22.696 3°9.361 3.5 76 10.5 101520 79
2002-05-03 08:01:56 51°22.696 3°9.361 3.4 75 10.5 101520 79
2002-05-03 08:02:00 51°22.695 3°9.36 4 72 10.5 101520 79
2002-05-03 08:02:05 51°22.695 3°9.359 3.4 77 10.5 101520 79
2002-05-03 08:02:10 51°22.694 3°9.357 3.4 76 10.5 101520 79
2002-05-03 08:02:15 51°22.694 3°9.356 3.9 83 10.5 101520 79
2002-05-03 08:02:20 51°22.693 3°9.355 3.4 83 10.5 101520 79
2002-05-03 08:02:26 51°22.693 3°9.354 3.4 84 10.5 101520 79
2002-05-03 08:02:30 51°22.692 3°9.353 1.6 80 10.5 101520 79
2002-05-03 08:02:36 51°22.692 3°9.351 3 79 10.5 101520 79
2002-05-03 08:02:40 51°22.691 3°9.35 3.1 80 10.5 101520 79
2002-05-03 08:02:46 51°22.691 3°9.349 2.8 79 10.5 101520 79
2002-05-03 08:02:50 51°22.69 3°9.348 2.8 77 10.4 101520 79
2002-05-03 08:02:55 51°22.69 3°9.347 3 84 10.4 101520 79
2002-05-03 08:03:00 51°22.689 3°9.345 3.1 84 10.4 101520 79
2002-05-03 08:03:06 51°22.689 3°9.344 3.4 84 10.4 101520 79
2002-05-03 08:03:10 51°22.688 3°9.343 3.1 80 10.4 101520 79
2002-05-03 08:03:15 51°22.688 3°9.342 3.3 81 10.4 101520 79
2002-05-03 08:03:20 51°22.687 3°9.341 3.3 80 10.4 101520 79
2002-05-03 08:03:25 51°22.687 3°9.339 3.1 77 10.4 101520 79
2002-05-03 08:03:30 51°22.686 3°9.338 3.5 77 10.4 101520 79
2002-05-03 08:03:36 51°22.686 3°9.336 3.3 76 10.4 101520 79
2002-05-03 08:03:40 51°22.685 3°9.335 3.7 75 10.4 101520 79
2002-05-03 08:03:45 51°22.685 3°9.334 3.8 81 10.4 101520 79
2002-05-03 08:03:50 51°22.684 3°9.332 3.7 78 10.4 101520 79
2002-05-03 08:03:55 51°22.683 3°9.331 4.4 83 10.4 101520 79
2002-05-03 08:04:01 51°22.683 3°9.329 4 83 10.4 101520 79
2002-05-03 08:04:06 51°22.682 3°9.328 3.6 84 10.4 101520 79
2002-05-03 08:04:11 51°22.681 3°9.326 3.4 80 10.4 101510 79
2002-05-03 08:04:16 51°22.681 3°9.325 4.1 82 10.4 101510 79
2002-05-03 08:04:20 51°22.68 3°9.324 3.9 84 10.4 101520 80
2002-05-03 08:04:25 51°22.679 3°9.322 3.2 78 10.4 101520 80
2002-05-03 08:04:30 51°22.679 3°9.321 4.1 80 10.4 101520 80
2002-05-03 08:04:35 51°22.678 3°9.32 3.5 78 10.4 101520 80
2002-05-03 08:04:40 51°22.677 3°9.318 3.8 80 10.4 101510 80
2002-05-03 08:04:46 51°22.677 3°9.316 3.5 79 10.4 101510 80
2002-05-03 08:04:51 51°22.676 3°9.315 3.5 79 10.4 101520 80
2002-05-03 08:04:55 51°22.676 3°9.314 3.8 80 10.4 101520 80
2002-05-03 08:05:00 51°22.675 3°9.312 3.5 83 10.4 101510 80
2002-05-03 08:05:06 51°22.674 3°9.31 3.2 84 10.4 101510 80
2002-05-03 08:05:10 51°22.674 3°9.309 3.1 92 10.4 101510 80
2002-05-03 08:05:16 51°22.673 3°9.307 4 83 10.4 101510 80
2002-05-03 08:05:20 51°22.672 3°9.306 3.9 87 10.3 101520 80
2002-05-03 08:05:25 51°22.671 3°9.304 3.3 82 10.3 101520 80
2002-05-03 08:05:31 51°22.671 3°9.303 3.5 79 10.3 101510 80
2002-05-03 08:05:35 51°22.67 3°9.301 3.9 80 10.3 101510 80
2002-05-03 08:05:40 51°22.669 3°9.3 3.5 88 10.3 101510 80
2002-05-03 08:05:46 51°22.669 3°9.298 3.4 86 10.3 101510 80
2002-05-03 08:05:51 51°22.668 3°9.296 3.5 83 10.3 101520 80
2002-05-03 08:05:56 51°22.667 3°9.294 3.5 82 10.3 101520 80
2002-05-03 08:06:00 51°22.667 3°9.293 3.3 82 10.3 101520 80
2002-05-03 08:06:06 51°22.666 3°9.291 3.9 80 10.3 101520 80
2002-05-03 08:06:10 51°22.665 3°9.29 3.4 82 10.3 101510 80
2002-05-03 08:06:15 51°22.665 3°9.288 3.7 83 10.3 101510 80
2002-05-03 08:06:20 51°22.664 3°9.287 3.2 90 10.3 101520 80
2002-05-03 08:06:26 51°22.663 3°9.285 3.2 85 10.3 101520 80
2002-05-03 08:06:31 51°22.662 3°9.283 3.2 88 10.3 101520 80
2002-05-03 08:06:36 51°22.662 3°9.281 3.4 87 10.3 101520 80
2002-05-03 08:06:40 51°22.661 3°9.28 3.8 99 10.3 101520 80
2002-05-03 08:06:46 51°22.66 3°9.278 3.8 91 10.3 101520 80
2002-05-03 08:06:50 51°22.659 3°9.277 3.5 91 10.3 101520 80
2002-05-03 08:06:55 51°22.659 3°9.275 3.3 90 10.3 101520 80
2002-05-03 08:07:00 51°22.658 3°9.273 3.9 90 10.3 101520 80
2002-05-03 08:07:06 51°22.657 3°9.271 3.6 89 10.3 101520 80
2002-05-03 08:07:11 51°22.656 3°9.27 3.7 91 10.3 101520 80
2002-05-03 08:07:15 51°22.656 3°9.268 3.4 85 10.3 101520 80
2002-05-03 08:07:20 51°22.655 3°9.266 4.2 90 10.3 101510 80
2002-05-03 08:07:26 51°22.654 3°9.264 3.9 91 10.3 101510 80
2002-05-03 08:07:30 51°22.654 3°9.263 3.7 95 10.3 101510 80
2002-05-03 08:07:35 51°22.653 3°9.261 4.2 99 10.3 101510 80
2002-05-03 08:07:41 51°22.652 3°9.259 3.7 94 10.3 101520 80
2002-05-03 08:07:46 51°22.652 3°9.257 3.9 90 10.3 101520 80
2002-05-03 08:07:50 51°22.651 3°9.256 3.8 93 10.3 101520 80
2002-05-03 08:07:55 51°22.65 3°9.254 3.8 95 10.3 101520 80
2002-05-03 08:08:00 51°22.65 3°9.252 3.6 92 10.3 101520 81
2002-05-03 08:08:05 51°22.649 3°9.251 4 93 10.3 101520 81
2002-05-03 08:08:10 51°22.648 3°9.249 3.8 93 10.3 101520 81
2002-05-03 08:08:16 51°22.647 3°9.247 3.9 94 10.3 101520 81
2002-05-03 08:08:20 51°22.647 3°9.246 3.2 92 10.3 101520 81
2002-05-03 08:08:26 51°22.646 3°9.243 3.3 89 10.3 101520 81
2002-05-03 08:08:31 51°22.645 3°9.241 3.4 93 10.3 101520 81
2002-05-03 08:08:35 51°22.644 3°9.24 3.4 97 10.3 101520 81
2002-05-03 08:08:40 51°22.644 3°9.238 3.8 100 10.3 101520 81
2002-05-03 08:08:46 51°22.643 3°9.236 3.8 107 10.3 101520 81
2002-05-03 08:08:50 51°22.642 3°9.235 3.2 102 10.3 101520 80
2002-05-03 08:08:56 51°22.641 3°9.233 4.2 110 10.3 101520 80
2002-05-03 08:09:00 51°22.64 3°9.231 4.5 107 10.3 101520 81
2002-05-03 08:09:05 51°22.64 3°9.229 3.8 103 10.3 101520 81
2002-05-03 08:09:10 51°22.639 3°9.228 3.6 99 10.3 101520 81
2002-05-03 08:09:15 51°22.638 3°9.226 3.7 100 10.3 101520 81
2002-05-03 08:09:21 51°22.637 3°9.224 3.9 90 10.3 101520 81